Content
SEND FEEDBACK

Daily
Averages
Monthly
Summary
United States of America

NORTH CHATHAM, MASSACHUSETTS


Home > North America > United States > Massachusetts
Elevation: 8 feet     Latitude: 41 40N     Longitude: 069 58W

WEATHER
 
SELECT A DAY
Number of Records: 206,214;   Date Range: 7/1/96 - 10/18/14
 
SHARE

PRINT THIS DATA

[ ← Previous Day ]
WEATHER ALMANAC - MARCH 14, 2013
[ Next Day → ]
[ °C ]   °F
Weather ElementAverageHighLow
Temperature33.5 °F39 °F (12:52 pm)27 °F (11:52 pm)
Dewpoint17.7 °F25 °F (5:52 am)9 °F (11:52 pm)
Humidity53.3 %72 % (6:52 am)38 % (5:52 pm)
Barometer29.76 in29.80 in (10:52 pm)29.70 in (2:52 pm)
Wind Speed6.9 mph15 mph (10:52 pm)
Wind Gust25.3 mph (10:52 pm)
Weather ElementAverage
Visibility9.7 mi
Wind DirectionWSW (237.3 °)

Weather ElementTotal
Precipitation---
Heating Degree Days32 (Base 65)
Averaged from 22 records on March 14, 2013
WEATHER CONDITIONS BREAKOUT
WIND DIRECTION BREAKOUT
WEATHER BY HOUR - MARCH 14, 2013
[ °C ]   °F
Local TimeTemperatureDewpointHumidityBarometerVisibilityWind DirectionWind SpeedGust SpeedPrecipitationEventsConditions
1:52 AM36.0 °F21.9 °F57 %29.77 in10.0 miWNW (300°)3.5 mphClear
2:52 AM36.0 °F21.9 °F57 %29.77 in10.0 miNW (310°)4.6 mphPartly Cloudy
3:52 AM34.0 °F23.0 °F64 %29.77 in10.0 miCalmClear
4:52 AM34.0 °F24.1 °F67 %29.77 in10.0 miWNW (300°)3.5 mphMostly Cloudy
5:52 AM34.0 °F25.0 °F70 %29.77 in10.0 miWNW (300°)3.5 mphOvercast
6:52 AM33.1 °F25.0 °F72 %29.78 in10.0 miCalmOvercast
7:52 AM33.1 °F25.0 °F72 %29.79 in10.0 miWest (270°)4.6 mphPartly Cloudy
8:52 AM37.9 °F21.9 °F53 %29.79 in10.0 miNW (310°)12.7 mph20.7 mphMostly Cloudy
10:52 AM36.0 °F21.9 °F57 %29.78 in5.0 miWest (260°)6.9 mph0.00 inSnowLight Snow
11:52 AM36.0 °F23.0 °F59 %29.76 in8.0 miWest (270°)6.9 mph0.00 inOvercast
12:52 PM39.0 °F19.9 °F46 %29.73 in10.0 miVariable4.6 mphOvercast
1:52 PM36.0 °F17.1 °F46 %29.71 in10.0 miNW (310°)6.9 mphOvercast
2:52 PM35.1 °F19.9 °F54 %29.70 in10.0 miCalmOvercast
3:52 PM34.0 °F16.0 °F48 %29.71 in10.0 miWNW (290°)10.4 mphOvercast
4:52 PM35.1 °F12.9 °F40 %29.71 in10.0 miWest (280°)10.4 mph18.4 mphOvercast
5:52 PM33.1 °F10.0 °F38 %29.73 in10.0 miWNW (290°)10.4 mph21.9 mphMostly Cloudy
6:52 PM32.0 °F10.0 °F40 %29.75 in10.0 miWest (270°)9.2 mph21.9 mphOvercast
7:52 PM30.9 °F10.9 °F43 %29.77 in10.0 miWNW (290°)9.2 mph19.6 mphOvercast
8:52 PM28.9 °F10.9 °F47 %29.79 in10.0 miWNW (290°)9.2 mph17.3 mphOvercast
9:52 PM28.0 °F10.9 °F49 %29.79 in10.0 miWNW (290°)12.7 mph20.7 mphPartly Cloudy
10:52 PM28.0 °F10.0 °F47 %29.80 in10.0 miWNW (300°)15.0 mph25.3 mphPartly Cloudy
11:52 PM27.0 °F9.0 °F47 %29.80 in10.0 miWNW (290°)8.1 mph20.7 mphClear
Hourly data recorded from KCQX, located miles away from North Chatham, Massachusetts







STORIES FROM OUR PARTNERS